164  
ASUS43 KEAX 310715  
RWREAX  
 
WEATHER ROUNDUP FOR EASTERN KANSAS AND NORTHWEST MISSOURI  
NATIONAL WEATHER SERVICE KANSAS CITY/PLEASANT HILL MO  
200 AM CDT SUN MAY 31 2020  
 
KSZ040-057-103>105-MOZ028-029-037-043-310800-   
..KANSAS CITY METROPOLITAN AREA
 
 
 
CITY SKY/WX TMP DP RH WIND PRES REMARKS
 
K.C. INTL CLOUDY 62 53 72 SE6 30.23F  
K.C. DOWNTOWN CLOUDY 64 54 69 E5 30.22S  
LEES SUMMIT CLOUDY 62 54 74 E5 30.24S  
OLATHE - IXD CLOUDY 64 54 69 E6 30.23F  
OLATHE - OJC CLOUDY 62 54 74 E5 30.23F  
LAWRENCE CLOUDY 63 56 78 E6 30.22F  
 

 
 
MOZ001>008-011>017-020>025-030>033-038>040-044>046-053-054-310800-   
..NORTHERN AND CENTRAL MISSOURI
 
 
 
CITY SKY/WX TMP DP RH WIND PRES REMARKS
 
ST. JOSEPH CLOUDY 62 54 74 CALM 30.23F  
MOSBY CLOUDY 59 55 88 CALM 30.24S  
HARRISONVILLE CLOUDY 63 55 77 E5 30.26S  
WHITEMAN AFB DRIZZLE 63 59 88 CALM 30.19S  
CLINTON NOT AVBL  
SEDALIA CLOUDY 62 55 77 NE3 30.24S  
MARSHALL MOCLDY 61 55 82 NE3 30.25S  
CHILLICOTHE N/A 59 56 89 CALM 30.26S  
MOBERLY CLEAR 59 52 77 N5 30.26R  
KIRKSVILLE CLOUDY 58 58 100 NW3 30.27R  
 

 
 
MOZ041-047>049-056>058-063>065-088>090-097-310800-   
..EASTERN AND SOUTHERN MISSOURI
 
 
 
CITY SKY/WX TMP DP RH WIND PRES REMARKS
 
ST. LOUIS INTL PTCLDY 62 52 69 W3 30.21S  
SPIRIT OF STL CLEAR 57 54 89 SW3 30.21R  
COLUMBIA CLEAR 61 54 77 N6 30.23S  
JEFFERSON CITY PTCLDY 62 55 77 CALM 30.23R  
MEXICO CLEAR 57 54 88 NW6 30.24S  
HANNIBAL PTCLDY 57 55 94 CALM 30.25S  
ROLLA CLEAR 58 52 80 CALM 30.23S  
LEBANON PTCLDY 61 54 77 NE5 30.24R  
OSAGE BEACH PTCLDY 59 55 87 NE3 30.23F  
SPRINGFIELD CLEAR 62 54 74 NE3 30.21R  
BRANSON CLEAR 59 54 82 E3 30.22S  
JOPLIN PTCLDY 62 54 74 E3 30.21S  
WEST PLAINS CLEAR 57 52 83 NE3 30.22S  
SIKESTON CLEAR 59 55 88 CALM 30.18R  
 

 
 
IAZ060-094-KSZ022-034>040-054-083-096-NEZ052-066-093-310800-    
..KANSAS...SOUTHEAST NEBRASKA AND IOWA
 
 
 
CITY SKY/WX TMP DP RH WIND PRES REMARKS
 
TOPEKA MOCLDY 64 55 72 E7 30.20F  
MANHATTAN PTCLDY 64 57 78 E7 30.19S  
EMPORIA PTCLDY 66 57 72 E7 30.19S  
OTTAWA MOCLDY 63 59 88 E5 30.21S  
CHANUTE PTCLDY 67 55 65 E8 30.19F  
SALINA PTCLDY 67 56 67 SE10 30.16R  
WICHITA PTCLDY 67 56 67 SE9 30.15S  
OMAHA CLOUDY 60 54 80 CALM 30.23F  
LINCOLN CLOUDY 59 53 80 E5 30.23S  
FALLS CITY CLOUDY 60 54 80 E3 30.22S  
LAMONI CLOUDY 58 55 90 E3 30.25F  
DES MOINES MOCLDY 62 53 72 CALM 30.25S  
 

 
 
 
 
CLICK HERE TO GO TO PREVIOUS BULLETINS.

The Nexlab MO Page
The Nexlab KS Page Main Text Page